Modesto, Modesto City-County-Sham Field, United States
Lat: 37.62N, Lon: 120.95W
Local Info
Past Weather Observations for Yesterday

NOTE: This archive is for the closest National Weather Service station to Modesto, Modesto City-County-Sham Field. Information may differ from the station used for current weather conditions.

Click here for Long-term Archive

Time Weather Temperature Dewpoint Humidity Pressure Winds Precip Visibility
23:53
Clear
66°F / 19°C 57°F / 14°C 73% 29.8 in
(1009 mb)
NNW 8.1 mph
(NNW 13 kph)
- 10SM
22:53
Clear
68°F / 20°C 57°F / 14°C 69% 29.77 in
(1008 mb)
N 8.1 mph
(N 13 kph)
- 10SM
21:53
Clear
72°F / 22°C 57°F / 14°C 61% 29.77 in
(1008 mb)
NNW 8.1 mph
(NNW 13 kph)
- 10SM
20:53
Clear
73°F / 23°C 57°F / 14°C 57% 29.77 in
(1008 mb)
NNW 8.1 mph
(NNW 13 kph)
- 10SM
19:53
Clear
79°F / 26°C 57°F / 14°C 48% 29.77 in
(1008 mb)
N 9.2 mph
(N 15 kph)
- 10SM
18:53
Clear
81°F / 27°C 59°F / 15°C 48% 29.74 in
(1007 mb)
NNW 10.4 mph
(NNW 17 kph)
- 10SM
17:53
Clear
82°F / 28°C 57°F / 14°C 42% 29.74 in
(1007 mb)
NNW 9.2 mph
(NNW 15 kph)
- 10SM
16:53
Clear
86°F / 30°C 57°F / 14°C 38% 29.74 in
(1007 mb)
NNW 9.2 mph
(NNW 15 kph)
- 10SM
15:53
Clear
88°F / 31°C 57°F / 14°C 35% 29.71 in
(1006 mb)
NW 9.2 mph
(NW 15 kph)
- 10SM
14:53
Clear
86°F / 30°C 55°F / 13°C 35% 29.74 in
(1007 mb)
W 9.2 mph
(W 15 kph)
- 10SM
13:53
Clear
84°F / 29°C 55°F / 13°C 37% 29.74 in
(1007 mb)
Variable 6.9 mph
(Variable 11 kph)
- 10SM
12:53
Clear
82°F / 28°C 55°F / 13°C 40% 29.77 in
(1008 mb)
NW 6.9 mph
(NW 11 kph)
- 10SM
11:53
Clear
81°F / 27°C 55°F / 13°C 42% 29.8 in
(1009 mb)
NNW 10.4 mph
(NNW 17 kph)
- 10SM
10:53
Clear
75°F / 24°C 55°F / 13°C 50% 29.8 in
(1009 mb)
NW 5.8 mph
(NW 9 kph)
- 10SM
09:53
Clear
72°F / 22°C 55°F / 13°C 57% 29.83 in
(1010 mb)
Variable 6.9 mph
(Variable 11 kph)
- 10SM
08:53
Clear
68°F / 20°C 55°F / 13°C 64% 29.83 in
(1010 mb)
NW 9.2 mph
(NW 15 kph)
- 10SM
07:53
Clear
64°F / 18°C 55°F / 13°C 73% 29.83 in
(1010 mb)
NW 12.7 mph
(NW 20 kph)
- 10SM
06:53
Clear
61°F / 16°C 55°F / 13°C 83% 29.83 in
(1010 mb)
N 6.9 mph
(N 11 kph)
- 10SM
05:53
Clear
61°F / 16°C 55°F / 13°C 83% 29.8 in
(1009 mb)
NNW 9.2 mph
(NNW 15 kph)
- 10SM
05:19
Partly Cloudy
61°F / 16°C 55°F / 13°C 83% 29.8 in
(1009 mb)
N 9.2 mph
(N 15 kph)
- 10SM
04:53
Clear
61°F / 16°C 55°F / 13°C 83% 29.77 in
(1008 mb)
NNW 10.4 mph
(NNW 17 kph)
- 10SM
03:53
Clear
63°F / 17°C 55°F / 13°C 77% 29.77 in
(1008 mb)
NNW 9.2 mph
(NNW 15 kph)
- 10SM
02:53
Clear
63°F / 17°C 55°F / 13°C 77% 29.77 in
(1008 mb)
NNW 9.2 mph
(NNW 15 kph)
- 10SM
01:53
Clear
63°F / 17°C 55°F / 13°C 77% 29.77 in
(1008 mb)
NNW 12.7 mph
(NNW 20 kph)
- 10SM
00:53
Clear
64°F / 18°C 55°F / 13°C 73% 29.77 in
(1008 mb)
NNW 6.9 mph
(NNW 11 kph)
- 10SM
Time Weather Temperature Dewpoint Humidity Pressure Winds Precip Visibility


Weather for websites

WeatherForYou.com, LLC is not responsible for any damages or problems caused by this service. Current weather conditions are obtained from the closest station including government and personal stations which may have varying degrees of accuracy. Weather forecasts are derived from the NOAA NDFD. Like all things, this site belongs to Jesus Christ... He just trusts me to maintain it. If you have any questions or comments email webmaster@weatherforyou.com

Copyright © 2014, WeatherForYou.com LLC. All rights reserved.